{"data":{"norad_id":68460,"epoch":"2026-05-25T02:35:55.278816Z","epoch_age_seconds":55748,"freshness":"FRESH","line1":"1 68460U 26067AW  26145.10827869  .00009848  00000+0  49668-3 0  9998","line2":"2 68460  97.4480 103.7957 0007281 135.2768 224.9054 15.17316306  8434","mean_motion":15.17316306,"eccentricity":0.0007281,"inclination_deg":97.448,"raan_deg":103.7957,"arg_perigee_deg":135.2768,"mean_anomaly_deg":224.9054,"bstar":0.00049668,"rev_number":843,"period_min":94.904404197446,"perigee_km":508.93726814965,"apogee_km":518.97353310344,"semimajor_km":6892.0924006265,"source":"CELESTRAK","updated_at":"2026-05-25T13:38:07.845554Z"}}